Fargo, ND

12:39 PM CST on November 23, 2017 (GMT -0600)
Hector International

Weather History for KFAR - September, 2012

Change the Weather History Date:

Wednesday, September 5, 2012

  Actual Average Record
Temperature  
Mean Temperature 65 °F 64 °F  
Max Temperature 77 °F 76 °F 99 °F (1947)
Min Temperature 53 °F 52 °F 26 °F (1885)
Degree Days  
Heating Degree Days 0 4  
Month to date heating degree days 0 17  
Since 1 July heating degree days 18 67  
Cooling Degree Days 0 3  
Month to date cooling degree days 28 15  
Year to date cooling degree days 773 520  
Growing Degree Days 16 (Base 50)    
Moisture  
Dew Point 47 °F    
Average Humidity 57    
Maximum Humidity 83    
Minimum Humidity 31    
Precipitation  
Precipitation 0.03 in 0.10 in 1.37 in (2005)
Month to date precipitation 0.09 0.49  
Year to date precipitation 11.31 16.55  
Snow  
Snow 0.00 in 0.00 in 0.00 in ()
Month to date snowfall 0.0 0.0  
Since 1 July snowfall 0.0 0.0  
Since 1 September snowfall 0.0 0.0  
Snow Depth 0.00 in    
Sea Level Pressure  
Sea Level Pressure 29.87 in    
Wind  
Wind Speed 10 mph (WNW)    
Max Wind Speed 25 mph    
Max Gust Speed 30 mph    
Visibility 10 miles    
Events Rain    
T = Trace of Precipitation, MM = Missing Value Source: NWS Daily Summary

Daily Weather History Graph

Daily Weather History Graph

Search for Another Location

Airport or City:

Trip Planner

Search our weather history database for the weather conditions in past years. The results will help you decide how hot, cold, wet, or windy it might be!

Date:

Astronomy

Sep. 05, 2012 Rise Set
Actual Time 6:52 AM CDT 7:57 PM CDT
Civil Twilight 6:21 AM CDT 8:28 PM CDT
Nautical Twilight 5:44 AM CDT 9:06 PM CDT
Astronomical Twilight 5:04 AM CDT 9:45 PM CDT
Moon 10:03 PM CDT (9/5) 12:21 PM CDT (9/5)
Length of Visible Light 14h 07m
Length of Day
13h 05m
Waning Gibbous, 76% of the Moon is Illuminated
Sep 5
Waning Gibbous
Sep 8
Last Quarter
Sep 15
New
Sep 22
First Quarter
Sep 29
Full

Hourly Weather History & Observations

Time (CDT) Temp. Dew Point Humidity Pressure Visibility Wind Dir Wind Speed Gust Speed Precip Events Conditions
12:53 AM 66.0 °F 48.9 °F 54% 29.84 in 10.0 mi Calm Calm - 0.03 in Rain Light Rain
1:53 AM 62.1 °F 55.0 °F 78% 29.83 in 10.0 mi NNW 9.2 mph - 0.00 in   Overcast
2:53 AM 61.0 °F 53.1 °F 75% 29.83 in 10.0 mi NNW 10.4 mph - N/A   Scattered Clouds
3:53 AM 61.0 °F 52.0 °F 72% 29.83 in 10.0 mi NNW 11.5 mph - 0.00 in Rain Light Rain
4:53 AM 59.0 °F 51.1 °F 75% 29.86 in 10.0 mi NNW 6.9 mph - 0.03 in   Scattered Clouds
5:53 AM 55.9 °F 50.0 °F 80% 29.87 in 10.0 mi SW 5.8 mph - 0.00 in   Mostly Cloudy
6:53 AM 57.0 °F 48.9 °F 74% 29.88 in 10.0 mi West 9.2 mph - N/A   Overcast
7:53 AM 55.0 °F 46.9 °F 74% 29.90 in 10.0 mi West 5.8 mph - N/A   Clear
8:53 AM 59.0 °F 46.9 °F 64% 29.89 in 10.0 mi WNW 6.9 mph - N/A   Clear
9:53 AM 64.0 °F 48.0 °F 56% 29.90 in 10.0 mi NW 9.2 mph - N/A   Clear
10:53 AM 70.0 °F 48.9 °F 47% 29.90 in 10.0 mi NW 13.8 mph - N/A   Clear
11:53 AM 72.0 °F 46.0 °F 40% 29.88 in 10.0 mi WNW 20.7 mph - N/A   Clear
12:53 PM 73.0 °F 45.0 °F 37% 29.87 in 10.0 mi WNW 17.3 mph 24.2 mph N/A   Clear
1:53 PM 75.0 °F 46.9 °F 37% 29.86 in 10.0 mi WNW 19.6 mph 25.3 mph N/A   Clear
2:53 PM 75.0 °F 45.0 °F 34% 29.86 in 10.0 mi WNW 19.6 mph 24.2 mph N/A   Mostly Cloudy
3:53 PM 73.0 °F 45.0 °F 37% 29.85 in 10.0 mi NW 20.7 mph 24.2 mph N/A   Mostly Cloudy
4:53 PM 75.9 °F 44.1 °F 32% 29.85 in 10.0 mi WNW 11.5 mph - N/A   Partly Cloudy
5:53 PM 73.9 °F 41.0 °F 30% 29.86 in 10.0 mi WNW 11.5 mph - N/A   Clear
6:53 PM 73.9 °F 42.1 °F 32% 29.86 in 10.0 mi NW 15.0 mph - N/A   Clear
7:53 PM 66.9 °F 43.0 °F 42% 29.87 in 10.0 mi West 3.5 mph - N/A   Clear
8:53 PM 60.1 °F 44.1 °F 55% 29.88 in 10.0 mi West 6.9 mph - N/A   Clear
9:53 PM 60.1 °F 44.1 °F 55% 29.88 in 10.0 mi SW 3.5 mph - N/A   Clear
10:53 PM 57.9 °F 44.1 °F 60% 29.88 in 10.0 mi SSW 3.5 mph - N/A   Clear
11:53 PM 55.9 °F 44.1 °F 64% 29.88 in 10.0 mi SSW 5.8 mph - N/A   Clear